Time,TemperatureF,DewpointF,PressureIn,WindDirection,WindDirectionDegrees,WindSpeedMPH,WindSpeedGustMPH,Humidity,HourlyPrecipIn,Conditions,Clouds,dailyrainin,SoftwareType,DateUTC
2013-02-18 00:00:00,16.2,5.5,29.44,South,186,13.8,13.8,62,0.00,OVC,,0.00,WeatherDisplay:10.37,2013-02-18 05:00:00,
2013-02-18 00:05:00,16.1,5.4,29.45,SSW,198,11.2,11.2,62,0.00,OVC,,0.00,WeatherDisplay:10.37,2013-02-18 05:05:00,
2013-02-18 00:10:00,16.1,5.4,29.45,ESE,113,8.1,8.1,62,0.00,OVC,,0.00,WeatherDisplay:10.37,2013-02-18 05:10:00,
2013-02-18 00:15:00,16.1,5.4,29.45,SW,226,13.8,13.8,62,0.00,OVC,,0.00,WeatherDisplay:10.37,2013-02-18 05:15:00,
2013-02-18 00:20:00,15.9,5.2,29.45,West,270,24.2,24.2,62,0.00,OVC,,0.00,WeatherDisplay:10.37,2013-02-18 05:20:00,
2013-02-18 00:25:00,15.9,5.2,29.46,ESE,123,8.1,8.1,62,0.00,OVC,,0.00,WeatherDisplay:10.37,2013-02-18 05:25:00,
2013-02-18 00:30:00,15.7,5.3,29.46,ESE,123,11.5,11.5,63,0.00,OVC,,0.00,WeatherDisplay:10.37,2013-02-18 05:30:00,
2013-02-18 00:35:00,15.7,5.0,29.46,ESE,107,11.5,11.5,62,0.00,OVC,,0.00,WeatherDisplay:10.37,2013-02-18 05:35:00,
2013-02-18 00:40:00,15.6,5.2,29.47,NW,313,18.4,18.4,63,0.00,OVC,,0.00,WeatherDisplay:10.37,2013-02-18 05:40:00,
2013-02-18 00:45:00,15.6,4.9,29.47,East,79,11.5,11.5,62,0.00,OVC,,0.00,WeatherDisplay:10.37,2013-02-18 05:45:00,
2013-02-18 00:50:00,15.4,4.7,29.47,East,100,11.5,11.5,62,0.00,OVC,,0.00,WeatherDisplay:10.37,2013-02-18 05:50:00,
2013-02-18 00:55:00,15.4,4.3,29.47,East,99,8.1,8.1,61,0.00,OVC,,0.00,WeatherDisplay:10.37,2013-02-18 05:55:00,
2013-02-18 01:00:00,15.3,4.6,29.48,SE,136,21.9,21.9,62,0.00,OVC,,0.00,WeatherDisplay:10.37,2013-02-18 06:00:00,
2013-02-18 01:05:00,15.3,4.2,29.48,South,189,24.2,24.2,61,0.00,OVC,,0.00,WeatherDisplay:10.37,2013-02-18 06:05:00,
2013-02-18 01:10:00,15.1,4.1,29.48,East,79,8.1,8.1,61,0.00,OVC,,0.00,WeatherDisplay:10.37,2013-02-18 06:10:00,
2013-02-18 01:15:00,15.1,4.1,29.48,East,93,13.8,13.8,61,0.00,OVC,,0.00,WeatherDisplay:10.37,2013-02-18 06:15:00,
2013-02-18 01:20:00,15.1,4.1,29.48,ENE,71,8.1,8.1,61,0.00,OVC,,0.00,WeatherDisplay:10.37,2013-02-18 06:20:00,
2013-02-18 01:25:00,14.9,3.9,29.48,SSE,148,11.2,11.2,61,0.00,OVC,,0.00,WeatherDisplay:10.37,2013-02-18 06:25:00,
2013-02-18 01:30:00,14.9,3.9,29.48,SSW,199,10.4,10.4,61,0.00,OVC,,0.00,WeatherDisplay:10.37,2013-02-18 06:30:00,
2013-02-18 01:35:00,14.8,4.1,29.49,East,95,11.5,11.5,62,0.00,OVC,,0.00,WeatherDisplay:10.37,2013-02-18 06:35:00,
2013-02-18 01:40:00,14.8,3.8,29.49,SSW,213,8.1,8.1,61,0.00,OVC,,0.00,WeatherDisplay:10.37,2013-02-18 06:40:00,
2013-02-18 01:45:00,14.8,3.8,29.49,NE,47,10.4,10.4,61,0.00,OVC,,0.00,WeatherDisplay:10.37,2013-02-18 06:45:00,
2013-02-18 01:50:00,14.8,3.8,29.50,NE,52,8.1,8.1,61,0.00,OVC,,0.00,WeatherDisplay:10.37,2013-02-18 06:50:00,
2013-02-18 01:55:00,14.8,4.1,29.50,SSE,167,15.0,15.0,62,0.00,OVC,,0.00,WeatherDisplay:10.37,2013-02-18 06:55:00,
2013-02-18 02:00:00,14.8,3.8,29.50,North,357,13.8,13.8,61,0.00,OVC,,0.00,WeatherDisplay:10.37,2013-02-18 07:00:00,
2013-02-18 02:05:00,14.8,3.4,29.50,West,274,11.5,11.5,60,0.00,OVC,,0.00,WeatherDisplay:10.37,2013-02-18 07:05:00,
2013-02-18 02:10:00,14.8,3.8,29.50,ESE,123,15.0,15.0,61,0.00,OVC,,0.00,WeatherDisplay:10.37,2013-02-18 07:10:00,
2013-02-18 02:16:00,14.8,4.1,29.50,WNW,287,10.4,10.4,62,0.00,OVC,,0.00,WeatherDisplay:10.37,2013-02-18 07:16:00,
2013-02-18 02:21:00,14.8,3.4,29.51,NW,304,13.8,13.8,60,0.00,OVC,,0.00,WeatherDisplay:10.37,2013-02-18 07:21:00,
2013-02-18 02:26:00,14.8,3.8,29.50,SE,140,8.1,8.3,61,0.00,OVC,,0.00,WeatherDisplay:10.37,2013-02-18 07:26:00,
2013-02-18 02:31:00,14.8,3.8,29.51,East,92,18.4,18.4,61,0.00,OVC,,0.00,WeatherDisplay:10.37,2013-02-18 07:31:00,
2013-02-18 02:36:00,14.8,3.8,29.51,SSE,155,11.5,11.5,61,0.00,OVC,,0.00,WeatherDisplay:10.37,2013-02-18 07:36:00,
2013-02-18 02:41:00,14.8,3.8,29.51,East,90,8.1,8.1,61,0.00,OVC,,0.00,WeatherDisplay:10.37,2013-02-18 07:41:00,
2013-02-18 02:46:00,14.8,3.8,29.51,SW,236,6.9,6.9,61,0.00,OVC,,0.00,WeatherDisplay:10.37,2013-02-18 07:46:00,
2013-02-18 02:51:00,14.8,3.8,29.51,WNW,299,10.4,10.4,61,0.00,OVC,,0.00,WeatherDisplay:10.37,2013-02-18 07:51:00,
2013-02-18 02:56:00,14.8,3.8,29.51,NE,34,8.1,8.1,61,0.00,OVC,,0.00,WeatherDisplay:10.37,2013-02-18 07:56:00,
2013-02-18 03:01:00,14.6,3.9,29.51,East,82,21.9,21.9,62,0.00,OVC,,0.00,WeatherDisplay:10.37,2013-02-18 08:01:00,
2013-02-18 03:06:00,14.6,3.9,29.51,North,3,11.5,11.5,62,0.00,CLR,,0.00,WeatherDisplay:10.37,2013-02-18 08:06:00,
2013-02-18 03:11:00,14.6,3.6,29.51,SE,126,13.8,13.8,61,0.00,CLR,,0.00,WeatherDisplay:10.37,2013-02-18 08:11:00,
2013-02-18 03:16:00,14.6,3.6,29.51,SSE,147,12.7,12.7,61,0.00,CLR,,0.00,WeatherDisplay:10.37,2013-02-18 08:16:00,
2013-02-18 03:21:00,14.6,3.6,29.51,SSW,199,10.4,10.4,61,0.00,CLR,,0.00,WeatherDisplay:10.37,2013-02-18 08:21:00,
2013-02-18 03:26:00,14.6,3.6,29.51,ESE,116,12.7,12.7,61,0.00,CLR,,0.00,WeatherDisplay:10.37,2013-02-18 08:26:00,
2013-02-18 03:31:00,14.6,3.6,29.51,WNW,294,13.8,13.8,61,0.00,CLR,,0.00,WeatherDisplay:10.37,2013-02-18 08:31:00,
2013-02-18 03:36:00,14.6,3.6,29.52,NE,48,11.5,11.5,61,0.00,CLR,,0.00,WeatherDisplay:10.37,2013-02-18 08:36:00,
2013-02-18 03:41:00,14.6,3.2,29.52,ESE,107,12.7,12.7,60,0.00,CLR,,0.00,WeatherDisplay:10.37,2013-02-18 08:41:00,
2013-02-18 03:46:00,14.6,3.2,29.53,NE,44,25.3,25.3,60,0.00,CLR,,0.00,WeatherDisplay:10.37,2013-02-18 08:46:00,
2013-02-18 03:51:00,14.6,3.2,29.52,ESE,119,19.6,19.6,60,0.00,CLR,,0.00,WeatherDisplay:10.37,2013-02-18 08:51:00,
2013-02-18 03:56:00,14.6,3.2,29.53,ENE,65,8.1,8.1,60,0.00,CLR,,0.00,WeatherDisplay:10.37,2013-02-18 08:56:00,
2013-02-18 04:01:00,14.5,3.5,29.53,ENE,71,12.7,12.7,61,0.00,CLR,,0.00,WeatherDisplay:10.37,2013-02-18 09:01:00,
2013-02-18 04:06:00,14.5,3.5,29.53,SSE,152,11.5,11.5,61,0.00,CLR,,0.00,WeatherDisplay:10.37,2013-02-18 09:06:00,
2013-02-18 04:11:00,14.5,3.5,29.54,NE,56,10.4,10.4,61,0.00,CLR,,0.00,WeatherDisplay:10.37,2013-02-18 09:11:00,
2013-02-18 04:16:00,14.3,3.3,29.54,East,83,10.4,10.4,61,0.00,CLR,,0.00,WeatherDisplay:10.37,2013-02-18 09:16:00,
2013-02-18 04:21:00,14.1,3.1,29.54,North,0,24.2,24.2,61,0.00,CLR,,0.00,WeatherDisplay:10.37,2013-02-18 09:21:00,
2013-02-18 04:26:00,14.1,3.1,29.55,ESE,104,10.4,10.4,61,0.00,CLR,,0.00,WeatherDisplay:10.37,2013-02-18 09:26:00,
2013-02-18 04:31:00,14.0,3.4,29.55,East,89,17.3,17.3,62,0.00,CLR,,0.00,WeatherDisplay:10.37,2013-02-18 09:31:00,
2013-02-18 04:36:00,14.0,3.4,29.56,ENE,76,10.4,10.4,62,0.00,CLR,,0.00,WeatherDisplay:10.37,2013-02-18 09:36:00,
2013-02-18 04:41:00,13.8,3.2,29.56,SE,130,15.0,15.0,62,0.00,CLR,,0.00,WeatherDisplay:10.37,2013-02-18 09:41:00,
2013-02-18 04:46:00,13.8,3.2,29.56,SSW,195,10.4,10.4,62,0.00,CLR,,0.00,WeatherDisplay:10.37,2013-02-18 09:46:00,
2013-02-18 04:51:00,13.6,2.6,29.56,SE,143,14.0,14.0,61,0.00,CLR,,0.00,WeatherDisplay:10.37,2013-02-18 09:51:00,
2013-02-18 04:56:00,13.6,2.6,29.56,ENE,78,19.6,19.6,61,0.00,CLR,,0.00,WeatherDisplay:10.37,2013-02-18 09:56:00,
2013-02-18 05:01:00,13.5,2.5,29.57,NE,37,15.0,15.0,61,0.00,CLR,,0.00,WeatherDisplay:10.37,2013-02-18 10:01:00,
2013-02-18 05:06:00,13.3,2.3,29.58,West,268,15.0,15.0,61,0.00,CLR,,0.00,WeatherDisplay:10.37,2013-02-18 10:06:00,
2013-02-18 05:11:00,13.3,2.7,29.58,WSW,251,17.3,17.3,62,0.00,CLR,,0.00,WeatherDisplay:10.37,2013-02-18 10:11:00,
2013-02-18 05:16:00,13.2,2.3,29.58,NE,41,11.5,11.5,61,0.00,CLR,,0.00,WeatherDisplay:10.37,2013-02-18 10:16:00,
2013-02-18 05:21:00,13.0,2.1,29.59,WSW,257,18.4,18.4,61,0.00,CLR,,0.00,WeatherDisplay:10.37,2013-02-18 10:21:00,
2013-02-18 05:26:00,13.0,2.1,29.59,East,79,17.3,17.3,61,0.00,CLR,,0.00,WeatherDisplay:10.37,2013-02-18 10:26:00,
2013-02-18 05:31:00,13.0,2.1,29.59,ESE,121,15.0,15.0,61,0.00,CLR,,0.00,WeatherDisplay:10.37,2013-02-18 10:31:00,
2013-02-18 05:36:00,12.8,2.2,29.59,WSW,240,11.5,11.5,62,0.00,CLR,,0.00,WeatherDisplay:10.37,2013-02-18 10:36:00,
2013-02-18 05:41:00,12.8,1.9,29.59,WSW,247,11.5,11.5,61,0.00,CLR,,0.00,WeatherDisplay:10.37,2013-02-18 10:41:00,
2013-02-18 05:46:00,12.8,1.9,29.60,ESE,123,12.7,12.7,61,0.00,CLR,,0.00,WeatherDisplay:10.37,2013-02-18 10:46:00,
2013-02-18 05:51:00,12.8,1.9,29.60,North,0,15.0,15.0,61,0.00,CLR,,0.00,WeatherDisplay:10.37,2013-02-18 10:51:00,
2013-02-18 05:57:00,12.8,1.9,29.60,SE,145,18.4,18.4,61,0.00,CLR,,0.00,WeatherDisplay:10.37,2013-02-18 10:57:00,
2013-02-18 06:02:00,12.8,1.9,29.60,East,85,12.7,12.7,61,0.00,CLR,,0.00,WeatherDisplay:10.37,2013-02-18 11:02:00,
2013-02-18 06:07:00,12.8,1.9,29.60,SE,145,13.8,13.8,61,0.00,CLR,,0.00,WeatherDisplay:10.37,2013-02-18 11:07:00,
2013-02-18 06:12:00,12.8,1.9,29.61,West,275,26.5,26.5,61,0.00,CLR,,0.00,WeatherDisplay:10.37,2013-02-18 11:12:00,
2013-02-18 06:17:00,12.8,1.9,29.61,WSW,240,17.3,17.3,61,0.00,CLR,,0.00,WeatherDisplay:10.37,2013-02-18 11:17:00,
2013-02-18 06:22:00,12.7,1.8,29.62,NW,312,8.1,8.1,61,0.00,CLR,,0.00,WeatherDisplay:10.37,2013-02-18 11:22:00,
2013-02-18 06:27:00,12.7,1.8,29.62,SSW,213,10.4,10.4,61,0.00,CLR,,0.00,WeatherDisplay:10.37,2013-02-18 11:27:00,
2013-02-18 06:32:00,12.5,1.6,29.61,North,0,18.4,18.4,61,0.00,CLR,,0.00,WeatherDisplay:10.37,2013-02-18 11:32:00,
2013-02-18 06:37:00,12.5,1.9,29.62,NNE,13,15.0,15.0,62,0.00,CLR,,0.00,WeatherDisplay:10.37,2013-02-18 11:37:00,
2013-02-18 06:42:00,12.5,1.6,29.63,SSE,150,12.7,12.7,61,0.00,CLR,,0.00,WeatherDisplay:10.37,2013-02-18 11:42:00,
2013-02-18 06:48:00,12.5,1.6,29.64,SE,143,11.5,11.5,61,0.00,CLR,,0.00,WeatherDisplay:10.37,2013-02-18 11:48:00,
2013-02-18 06:53:00,12.5,1.6,29.64,SSW,210,15.0,15.0,61,0.00,CLR,,0.00,WeatherDisplay:10.37,2013-02-18 11:53:00,
2013-02-18 06:58:00,12.5,1.6,29.64,ESE,107,8.4,8.4,61,0.00,CLR,,0.00,WeatherDisplay:10.37,2013-02-18 11:58:00,
2013-02-18 07:03:00,12.5,1.6,29.65,ESE,120,8.4,8.4,61,0.00,CLR,,0.00,WeatherDisplay:10.37,2013-02-18 12:03:00,
2013-02-18 07:08:00,12.5,1.6,29.65,WSW,247,10.4,10.4,61,0.00,CLR,,0.00,WeatherDisplay:10.37,2013-02-18 12:08:00,
2013-02-18 07:13:00,12.5,1.6,29.65,SW,216,11.5,11.5,61,0.00,CLR,,0.00,WeatherDisplay:10.37,2013-02-18 12:13:00,
2013-02-18 07:18:00,12.7,1.8,29.66,SE,145,11.5,11.5,61,0.00,CLR,,0.00,WeatherDisplay:10.37,2013-02-18 12:18:00,
2013-02-18 07:23:00,13.2,1.9,29.66,NNE,31,13.8,13.8,60,0.00,CLR,,0.00,WeatherDisplay:10.37,2013-02-18 12:23:00,
2013-02-18 07:28:00,13.5,2.2,29.66,WNW,288,8.1,8.1,60,0.00,CLR,,0.00,WeatherDisplay:10.37,2013-02-18 12:28:00,
2013-02-18 07:34:00,13.8,2.1,29.66,SSW,212,18.4,18.4,59,0.00,CLR,,0.00,WeatherDisplay:10.37,2013-02-18 12:34:00,
2013-02-18 07:39:00,13.8,1.7,29.66,SSE,155,18.4,18.4,58,0.00,CLR,,0.00,WeatherDisplay:10.37,2013-02-18 12:39:00,
2013-02-18 07:44:00,14.1,2.0,29.66,SW,234,24.2,24.2,58,0.00,CLR,,0.00,WeatherDisplay:10.37,2013-02-18 12:44:00,
2013-02-18 07:49:00,14.3,2.2,29.67,South,185,11.5,11.5,58,0.00,CLR,,0.00,WeatherDisplay:10.37,2013-02-18 12:49:00,
2013-02-18 07:54:00,14.6,2.1,29.66,East,92,13.8,13.8,57,0.00,CLR,,0.00,WeatherDisplay:10.37,2013-02-18 12:54:00,
2013-02-18 07:59:00,14.8,2.3,29.67,SSE,161,24.2,24.2,57,0.00,CLR,,0.00,WeatherDisplay:10.37,2013-02-18 12:59:00,
2013-02-18 08:04:00,15.1,2.2,29.67,North,8,19.6,19.6,56,0.00,CLR,,0.00,WeatherDisplay:10.37,2013-02-18 13:04:00,
2013-02-18 08:09:00,14.9,2.4,29.67,East,80,11.5,11.5,57,0.00,CLR,,0.00,WeatherDisplay:10.37,2013-02-18 13:09:00,
2013-02-18 08:14:00,15.3,2.4,29.67,ESE,114,13.8,13.8,56,0.00,CLR,,0.00,WeatherDisplay:10.37,2013-02-18 13:14:00,
2013-02-18 08:19:00,15.6,3.1,29.68,SE,131,19.6,19.6,57,0.00,CLR,,0.00,WeatherDisplay:10.37,2013-02-18 13:19:00,
2013-02-18 08:24:00,15.7,3.1,29.68,NNW,330,10.4,10.4,57,0.00,CLR,,0.00,WeatherDisplay:10.37,2013-02-18 13:24:00,
2013-02-18 08:29:00,15.7,2.8,29.68,NE,34,13.8,13.8,56,0.00,CLR,,0.00,WeatherDisplay:10.37,2013-02-18 13:29:00,
2013-02-18 08:34:00,15.9,3.0,29.68,SE,130,26.5,26.5,56,0.00,CLR,,0.00,WeatherDisplay:10.37,2013-02-18 13:34:00,
2013-02-18 08:39:00,16.2,2.8,29.68,NE,45,19.6,19.6,55,0.00,CLR,,0.00,WeatherDisplay:10.37,2013-02-18 13:39:00,
2013-02-18 08:44:00,16.2,2.8,29.69,West,268,15.0,15.0,55,0.00,CLR,,0.00,WeatherDisplay:10.37,2013-02-18 13:44:00,
2013-02-18 08:49:00,16.2,2.8,29.69,NNW,343,18.4,18.4,55,0.00,CLR,,0.00,WeatherDisplay:10.37,2013-02-18 13:49:00,
2013-02-18 08:54:00,16.4,3.4,29.69,NE,55,27.6,27.6,56,0.00,CLR,,0.00,WeatherDisplay:10.37,2013-02-18 13:54:00,
2013-02-18 08:59:00,16.4,3.4,29.69,WNW,299,25.3,25.3,56,0.00,CLR,,0.00,WeatherDisplay:10.37,2013-02-18 13:59:00,
2013-02-18 09:04:00,16.7,3.3,29.70,East,96,13.8,13.8,55,0.00,CLR,,0.00,WeatherDisplay:10.37,2013-02-18 14:04:00,
2013-02-18 09:09:00,16.8,3.0,29.70,NNE,23,17.3,17.3,54,0.00,CLR,,0.00,WeatherDisplay:10.37,2013-02-18 14:09:00,
2013-02-18 09:14:00,17.0,3.6,29.71,NE,42,17.3,17.3,55,0.00,CLR,,0.00,WeatherDisplay:10.37,2013-02-18 14:14:00,
2013-02-18 09:19:00,17.3,3.5,29.71,WSW,241,17.3,17.3,54,0.00,CLR,,0.00,WeatherDisplay:10.37,2013-02-18 14:19:00,
2013-02-18 09:24:00,17.5,4.1,29.72,SE,141,17.3,17.3,55,0.00,CLR,,0.00,WeatherDisplay:10.37,2013-02-18 14:24:00,
2013-02-18 09:29:00,17.6,3.8,29.72,NE,38,21.9,21.9,54,0.00,CLR,,0.00,WeatherDisplay:10.37,2013-02-18 14:29:00,
2013-02-18 09:34:00,17.6,3.3,29.73,ENE,62,11.5,11.5,53,0.00,CLR,,0.00,WeatherDisplay:10.37,2013-02-18 14:34:00,
2013-02-18 09:40:00,18.1,4.2,29.73,ESE,120,11.5,11.5,54,0.00,CLR,,0.00,WeatherDisplay:10.37,2013-02-18 14:40:00,
2013-02-18 09:45:00,18.1,3.8,29.73,ESE,104,21.9,21.9,53,0.00,CLR,,0.00,WeatherDisplay:10.37,2013-02-18 14:45:00,
2013-02-18 09:50:00,18.3,4.0,29.73,East,82,10.4,10.4,53,0.00,CLR,,0.00,WeatherDisplay:10.37,2013-02-18 14:50:00,
2013-02-18 09:55:00,18.4,4.1,29.73,NNE,31,15.0,15.0,53,0.00,CLR,,0.00,WeatherDisplay:10.37,2013-02-18 14:55:00,
2013-02-18 10:00:00,18.7,4.4,29.73,SSE,150,13.8,13.8,53,0.00,CLR,,0.00,WeatherDisplay:10.37,2013-02-18 15:00:00,
2013-02-18 10:05:00,19.0,4.7,29.73,ESE,102,15.0,15.0,53,0.00,CLR,,0.00,WeatherDisplay:10.37,2013-02-18 15:05:00,
2013-02-18 10:10:00,19.0,4.2,29.74,East,79,19.6,19.6,52,0.00,CLR,,0.00,WeatherDisplay:10.37,2013-02-18 15:10:00,
2013-02-18 10:15:00,19.4,4.6,29.74,SE,138,17.3,17.3,52,0.00,CLR,,0.00,WeatherDisplay:10.37,2013-02-18 15:15:00,
2013-02-18 10:20:00,19.7,5.3,29.75,NE,47,13.8,13.8,53,0.00,CLR,,0.00,WeatherDisplay:10.37,2013-02-18 15:20:00,
2013-02-18 10:25:00,20.0,4.7,29.75,WSW,243,17.3,17.3,51,0.00,CLR,,0.00,WeatherDisplay:10.37,2013-02-18 15:25:00,
2013-02-18 10:30:00,20.3,5.0,29.75,NW,320,8.1,8.1,51,0.00,CLR,,0.00,WeatherDisplay:10.37,2013-02-18 15:30:00,
2013-02-18 10:35:00,20.8,6.3,29.75,North,0,10.4,10.4,53,0.00,CLR,,0.00,WeatherDisplay:10.37,2013-02-18 15:35:00,
2013-02-18 10:40:00,20.8,5.5,29.75,SSE,164,15.0,15.0,51,0.00,CLR,,0.00,WeatherDisplay:10.37,2013-02-18 15:40:00,
2013-02-18 10:45:00,20.8,5.5,29.75,NE,55,17.3,17.3,51,0.00,CLR,,0.00,WeatherDisplay:10.37,2013-02-18 15:45:00,
2013-02-18 10:51:00,20.8,5.5,29.75,East,80,15.0,15.0,51,0.00,CLR,,0.00,WeatherDisplay:10.37,2013-02-18 15:51:00,
2013-02-18 10:56:00,21.1,5.8,29.75,SSW,198,12.7,12.7,51,0.00,CLR,,0.00,WeatherDisplay:10.37,2013-02-18 15:56:00,
2013-02-18 11:34:00,22.5,7.9,29.75,North,356,18.4,18.4,53,0.00,CLR,,0.00,WeatherDisplay:10.37,2013-02-18 16:34:00,
2013-02-18 11:39:00,22.8,6.9,29.75,East,80,10.4,10.4,50,0.00,CLR,,0.00,WeatherDisplay:10.37,2013-02-18 16:39:00,
2013-02-18 11:44:00,22.9,7.0,29.75,SE,138,29.9,29.9,50,0.00,CLR,,0.00,WeatherDisplay:10.37,2013-02-18 16:44:00,
2013-02-18 11:50:00,22.9,7.0,29.75,North,8,14.0,14.0,50,0.00,CLR,,0.00,WeatherDisplay:10.37,2013-02-18 16:50:00,
2013-02-18 11:56:00,23.2,7.3,29.76,NW,322,19.6,19.6,50,0.00,CLR,,0.00,WeatherDisplay:10.37,2013-02-18 16:56:00,
2013-02-18 12:01:00,23.5,8.0,29.76,SSE,161,13.8,13.8,51,0.00,CLR,,0.00,WeatherDisplay:10.37,2013-02-18 17:01:00,
2013-02-18 12:07:00,23.8,7.4,29.76,NE,38,15.0,15.0,49,0.00,CLR,,0.00,WeatherDisplay:10.37,2013-02-18 17:07:00,
2013-02-18 12:12:00,24.0,8.0,29.77,ESE,121,8.1,8.1,50,0.00,CLR,,0.00,WeatherDisplay:10.37,2013-02-18 17:12:00,
2013-02-18 12:17:00,24.5,8.5,29.77,ENE,69,10.4,10.4,50,0.00,CLR,,0.00,WeatherDisplay:10.37,2013-02-18 17:17:00,
2013-02-18 12:22:00,24.7,8.2,29.77,NNE,21,18.4,18.4,49,0.00,CLR,,0.00,WeatherDisplay:10.37,2013-02-18 17:22:00,
2013-02-18 12:27:00,25.0,8.5,29.77,SSW,208,17.3,17.3,49,0.00,CLR,,0.00,WeatherDisplay:10.37,2013-02-18 17:27:00,
2013-02-18 12:32:00,25.1,8.1,29.76,NE,54,24.2,24.2,48,0.00,CLR,,0.00,WeatherDisplay:10.37,2013-02-18 17:32:00,
2013-02-18 12:37:00,25.1,8.1,29.77,WSW,254,24.2,24.2,48,0.00,CLR,,0.00,WeatherDisplay:10.37,2013-02-18 17:37:00,
2013-02-18 12:42:00,25.1,8.6,29.76,South,188,15.0,15.0,49,0.00,CLR,,0.00,WeatherDisplay:10.37,2013-02-18 17:42:00,
2013-02-18 12:47:00,25.4,8.4,29.77,NW,322,29.9,29.9,48,0.00,CLR,,0.00,WeatherDisplay:10.37,2013-02-18 17:47:00,
2013-02-18 12:52:00,25.6,9.1,29.77,SW,219,17.3,17.3,49,0.00,CLR,,0.00,WeatherDisplay:10.37,2013-02-18 17:52:00,
2013-02-18 12:57:00,25.9,9.3,29.76,South,186,17.3,17.3,49,0.00,CLR,,0.00,WeatherDisplay:10.37,2013-02-18 17:57:00,
2013-02-18 13:02:00,26.2,8.7,29.76,ENE,68,38.0,38.0,47,0.00,CLR,,0.00,WeatherDisplay:10.37,2013-02-18 18:02:00,
2013-02-18 13:07:00,26.2,8.7,29.77,North,4,13.8,13.8,47,0.00,CLR,,0.00,WeatherDisplay:10.37,2013-02-18 18:07:00,
2013-02-18 13:12:00,26.5,9.4,29.77,ESE,110,15.0,15.0,48,0.00,CLR,,0.00,WeatherDisplay:10.37,2013-02-18 18:12:00,
2013-02-18 13:17:00,26.9,9.8,29.77,NE,56,6.9,6.9,48,0.00,CLR,,0.00,WeatherDisplay:10.37,2013-02-18 18:17:00,
2013-02-18 13:23:00,27.2,9.6,29.77,SSE,154,13.8,13.8,47,0.00,CLR,,0.00,WeatherDisplay:10.37,2013-02-18 18:23:00,
2013-02-18 13:28:00,27.5,10.4,29.77,NW,306,19.6,19.6,48,0.00,CLR,,0.00,WeatherDisplay:10.37,2013-02-18 18:28:00,
2013-02-18 13:33:00,27.5,9.9,29.77,ESE,103,11.5,11.5,47,0.00,CLR,,0.00,WeatherDisplay:10.37,2013-02-18 18:33:00,
2013-02-18 13:38:00,27.5,9.4,29.77,ENE,62,10.4,10.4,46,0.00,CLR,,0.00,WeatherDisplay:10.37,2013-02-18 18:38:00,
2013-02-18 13:43:00,27.5,9.4,29.77,South,181,15.0,15.0,46,0.00,CLR,,0.00,WeatherDisplay:10.37,2013-02-18 18:43:00,
2013-02-18 13:48:00,27.7,9.6,29.77,SW,227,19.6,19.6,46,0.00,CLR,,0.00,WeatherDisplay:10.37,2013-02-18 18:48:00,
2013-02-18 13:53:00,27.7,9.1,29.77,WNW,301,15.0,15.0,45,0.00,CLR,,0.00,WeatherDisplay:10.37,2013-02-18 18:53:00,
2013-02-18 13:58:00,27.8,10.2,29.77,NNE,30,19.6,19.6,47,0.00,CLR,,0.00,WeatherDisplay:10.37,2013-02-18 18:58:00,
2013-02-18 14:03:00,27.8,9.2,29.77,NNW,335,17.3,17.3,45,0.00,CLR,,0.00,WeatherDisplay:10.37,2013-02-18 19:03:00,
2013-02-18 14:08:00,27.8,9.2,29.77,NNE,23,10.4,10.4,45,0.00,CLR,,0.00,WeatherDisplay:10.37,2013-02-18 19:08:00,
2013-02-18 14:13:00,27.9,9.3,29.78,ESE,107,26.5,26.5,45,0.00,CLR,,0.00,WeatherDisplay:10.37,2013-02-18 19:13:00,
2013-02-18 14:18:00,28.1,9.5,29.78,WSW,250,26.6,26.6,45,0.00,CLR,,0.00,WeatherDisplay:10.37,2013-02-18 19:18:00,
2013-02-18 14:23:00,28.1,9.5,29.78,ESE,107,13.8,13.8,45,0.00,CLR,,0.00,WeatherDisplay:10.37,2013-02-18 19:23:00,
2013-02-18 14:28:00,28.1,9.9,29.78,NNE,32,26.5,26.5,46,0.00,CLR,,0.00,WeatherDisplay:10.37,2013-02-18 19:28:00,
2013-02-18 14:33:00,28.4,9.2,29.79,NE,47,8.1,8.1,44,0.00,CLR,,0.00,WeatherDisplay:10.37,2013-02-18 19:33:00,
2013-02-18 14:38:00,28.5,10.3,29.79,East,80,11.5,11.5,46,0.00,CLR,,0.00,WeatherDisplay:10.37,2013-02-18 19:38:00,
2013-02-18 14:43:00,28.7,10.0,29.79,ENE,76,10.4,10.4,45,0.00,CLR,,0.00,WeatherDisplay:10.37,2013-02-18 19:43:00,
2013-02-18 14:48:00,28.8,9.6,29.79,East,83,18.4,18.4,44,0.00,CLR,,0.00,WeatherDisplay:10.37,2013-02-18 19:48:00,
2013-02-18 14:53:00,28.8,9.6,29.79,NNE,31,10.4,10.4,44,0.00,CLR,,0.00,WeatherDisplay:10.37,2013-02-18 19:53:00,
2013-02-18 14:58:00,28.7,9.5,29.80,ESE,123,13.8,13.8,44,0.00,CLR,,0.00,WeatherDisplay:10.37,2013-02-18 19:58:00,
2013-02-18 15:03:00,28.5,8.8,29.80,SSE,151,13.8,13.8,43,0.00,CLR,,0.00,WeatherDisplay:10.37,2013-02-18 20:03:00,
2013-02-18 15:08:00,28.5,8.8,29.80,ESE,116,13.8,13.8,43,0.00,CLR,,0.00,WeatherDisplay:10.37,2013-02-18 20:08:00,
2013-02-18 15:13:00,28.5,9.3,29.80,East,99,13.8,13.8,44,0.00,CLR,,0.00,WeatherDisplay:10.37,2013-02-18 20:13:00,
2013-02-18 15:18:00,28.5,9.3,29.81,SE,128,17.3,17.3,44,0.00,CLR,,0.00,WeatherDisplay:10.37,2013-02-18 20:18:00,
2013-02-18 15:23:00,28.5,8.8,29.80,East,92,17.3,17.3,43,0.00,CLR,,0.00,WeatherDisplay:10.37,2013-02-18 20:23:00,
2013-02-18 15:28:00,28.5,9.3,29.80,South,174,13.8,13.8,44,0.00,CLR,,0.00,WeatherDisplay:10.37,2013-02-18 20:28:00,
2013-02-18 15:33:00,28.5,9.3,29.80,SW,222,17.3,17.3,44,0.00,CLR,,0.00,WeatherDisplay:10.37,2013-02-18 20:33:00,
2013-02-18 15:39:00,28.5,8.8,29.81,South,191,21.9,21.9,43,0.00,CLR,,0.00,WeatherDisplay:10.37,2013-02-18 20:39:00,
2013-02-18 15:44:00,28.4,9.2,29.81,East,85,36.8,36.8,44,0.00,CLR,,0.00,WeatherDisplay:10.37,2013-02-18 20:44:00,
2013-02-18 15:49:00,28.4,8.7,29.82,NE,44,17.3,17.3,43,0.00,CLR,,0.00,WeatherDisplay:10.37,2013-02-18 20:49:00,
2013-02-18 15:54:00,28.2,9.0,29.82,ESE,117,12.7,12.7,44,0.00,CLR,,0.00,WeatherDisplay:10.37,2013-02-18 20:54:00,
2013-02-18 15:59:00,28.2,9.0,29.82,West,281,10.4,10.4,44,0.00,CLR,,0.00,WeatherDisplay:10.37,2013-02-18 20:59:00,
2013-02-18 16:04:00,28.2,9.0,29.82,SE,130,10.4,10.4,44,0.00,CLR,,0.00,WeatherDisplay:10.37,2013-02-18 21:04:00,
2013-02-18 16:09:00,28.1,9.0,29.82,NE,44,8.4,8.4,44,0.00,CLR,,0.00,WeatherDisplay:10.37,2013-02-18 21:09:00,
2013-02-18 16:14:00,27.9,8.8,29.83,SW,215,29.9,29.9,44,0.00,CLR,,0.00,WeatherDisplay:10.37,2013-02-18 21:14:00,
2013-02-18 16:19:00,27.8,9.2,29.83,SSE,160,9.8,9.8,45,0.00,CLR,,0.00,WeatherDisplay:10.37,2013-02-18 21:19:00,
2013-02-18 16:24:00,27.5,9.4,29.84,WNW,295,9.8,9.8,46,0.00,CLR,,0.00,WeatherDisplay:10.37,2013-02-18 21:24:00,
2013-02-18 16:29:00,27.5,8.9,29.84,East,100,15.0,15.0,45,0.00,CLR,,0.00,WeatherDisplay:10.37,2013-02-18 21:29:00,
2013-02-18 16:34:00,27.2,8.6,29.84,South,189,11.5,11.5,45,0.00,CLR,,0.00,WeatherDisplay:10.37,2013-02-18 21:34:00,
2013-02-18 16:39:00,27.1,8.5,29.85,East,88,10.4,10.4,45,0.00,CLR,,0.00,WeatherDisplay:10.37,2013-02-18 21:39:00,
2013-02-18 16:44:00,26.9,8.4,29.86,NNE,31,10.4,10.4,45,0.00,CLR,,0.00,WeatherDisplay:10.37,2013-02-18 21:44:00,
2013-02-18 16:49:00,26.8,8.3,29.87,SSW,192,18.4,18.4,45,0.00,CLR,,0.00,WeatherDisplay:10.37,2013-02-18 21:49:00,
2013-02-18 16:54:00,26.6,8.1,29.87,SSW,206,11.5,11.5,45,0.00,CLR,,0.00,WeatherDisplay:10.37,2013-02-18 21:54:00,
2013-02-18 17:00:00,26.6,8.1,29.87,ENE,69,10.4,10.4,45,0.00,CLR,,0.00,WeatherDisplay:10.37,2013-02-18 22:00:00,
2013-02-18 17:05:00,26.5,7.5,29.88,SSE,161,21.9,21.9,44,0.00,CLR,,0.00,WeatherDisplay:10.37,2013-02-18 22:05:00,
2013-02-18 17:10:00,26.5,8.0,29.88,East,88,4.6,4.6,45,0.00,CLR,,0.00,WeatherDisplay:10.37,2013-02-18 22:10:00,
2013-02-18 17:15:00,26.2,8.2,29.89,NNW,328,15.0,15.0,46,0.00,CLR,,0.00,WeatherDisplay:10.37,2013-02-18 22:15:00,
2013-02-18 17:20:00,26.2,7.7,29.89,ENE,66,9.8,9.8,45,0.00,CLR,,0.00,WeatherDisplay:10.37,2013-02-18 22:20:00,
2013-02-18 17:25:00,26.2,7.7,29.89,ESE,119,10.4,10.4,45,0.00,CLR,,0.00,WeatherDisplay:10.37,2013-02-18 22:25:00,
2013-02-18 17:30:00,26.0,7.5,29.89,South,185,8.4,8.4,45,0.00,CLR,,0.00,WeatherDisplay:10.37,2013-02-18 22:30:00,
2013-02-18 17:35:00,25.9,7.9,29.90,ESE,106,8.1,8.1,46,0.00,CLR,,0.00,WeatherDisplay:10.37,2013-02-18 22:35:00,
2013-02-18 17:40:00,25.7,7.3,29.90,SSE,150,8.1,8.1,45,0.00,CLR,,0.00,WeatherDisplay:10.37,2013-02-18 22:40:00,
2013-02-18 17:45:00,25.7,6.8,29.90,ESE,106,17.3,17.3,44,0.00,CLR,,0.00,WeatherDisplay:10.37,2013-02-18 22:45:00,
2013-02-18 17:50:00,25.6,7.2,29.91,South,185,15.0,15.0,45,0.00,CLR,,0.00,WeatherDisplay:10.37,2013-02-18 22:50:00,
2013-02-18 17:55:00,25.4,7.0,29.90,East,85,10.4,10.4,45,0.00,CLR,,0.00,WeatherDisplay:10.37,2013-02-18 22:55:00,
2013-02-18 18:00:00,25.4,7.0,29.91,ESE,109,13.8,13.8,45,0.00,CLR,,0.00,WeatherDisplay:10.37,2013-02-18 23:00:00,
2013-02-18 18:05:00,25.3,6.4,29.91,SSW,208,16.8,16.8,44,0.00,CLR,,0.00,WeatherDisplay:10.37,2013-02-18 23:05:00,
2013-02-18 18:10:00,25.3,6.4,29.91,SSW,192,11.5,11.5,44,0.00,CLR,,0.00,WeatherDisplay:10.37,2013-02-18 23:10:00,
2013-02-18 18:15:00,25.1,6.2,29.91,South,179,9.8,9.8,44,0.00,CLR,,0.00,WeatherDisplay:10.37,2013-02-18 23:15:00,
2013-02-18 18:20:00,25.0,6.6,29.91,ESE,112,24.2,24.2,45,0.00,CLR,,0.00,WeatherDisplay:10.37,2013-02-18 23:20:00,
2013-02-18 18:25:00,25.0,6.6,29.92,East,89,10.4,10.4,45,0.00,CLR,,0.00,WeatherDisplay:10.37,2013-02-18 23:25:00,
2013-02-18 18:30:00,24.8,6.4,29.92,SE,126,29.9,29.9,45,0.00,CLR,,0.00,WeatherDisplay:10.37,2013-02-18 23:30:00,
2013-02-18 18:35:00,24.7,6.3,29.93,ENE,64,9.8,9.8,45,0.00,CLR,,0.00,WeatherDisplay:10.37,2013-02-18 23:35:00,
2013-02-18 18:40:00,24.5,6.2,29.93,ENE,64,8.1,8.1,45,0.00,CLR,,0.00,WeatherDisplay:10.37,2013-02-18 23:40:00,
2013-02-18 18:45:00,24.4,6.1,29.93,SW,236,12.7,12.7,45,0.00,CLR,,0.00,WeatherDisplay:10.37,2013-02-18 23:45:00,
2013-02-18 18:50:00,24.2,5.9,29.93,SSW,212,6.9,6.9,45,0.00,CLR,,0.00,WeatherDisplay:10.37,2013-02-18 23:50:00,
2013-02-18 18:55:00,24.1,5.8,29.93,SSW,210,17.3,17.3,45,0.00,CLR,,0.00,WeatherDisplay:10.37,2013-02-18 23:55:00,
2013-02-18 19:00:00,24.1,5.3,29.93,ENE,61,6.9,6.9,44,0.00,CLR,,0.00,WeatherDisplay:10.37,2013-02-19 00:00:00,
2013-02-18 19:05:00,24.0,5.7,29.93,East,93,15.0,15.0,45,0.00,CLR,,0.00,WeatherDisplay:10.37,2013-02-19 00:05:00,
2013-02-18 19:10:00,23.8,5.5,29.94,SSE,150,21.9,21.9,45,0.00,CLR,,0.00,WeatherDisplay:10.37,2013-02-19 00:10:00,
2013-02-18 19:15:00,23.7,5.4,29.94,SSW,192,15.0,15.0,45,0.00,CLR,,0.00,WeatherDisplay:10.37,2013-02-19 00:15:00,
2013-02-18 19:20:00,23.5,5.2,29.93,SSE,162,17.3,17.3,45,0.00,CLR,,0.00,WeatherDisplay:10.37,2013-02-19 00:20:00,
2013-02-18 19:25:00,23.4,4.7,29.94,WSW,237,15.0,15.0,44,0.00,CLR,,0.00,WeatherDisplay:10.37,2013-02-19 00:25:00,
2013-02-18 19:30:00,23.4,5.2,29.94,SE,130,8.1,8.1,45,0.00,CLR,,0.00,WeatherDisplay:10.37,2013-02-19 00:30:00,
2013-02-18 19:35:00,23.1,4.9,29.94,SE,127,15.0,15.0,45,0.00,CLR,,0.00,WeatherDisplay:10.37,2013-02-19 00:35:00,
2013-02-18 19:41:00,23.1,4.4,29.94,ESE,123,6.9,6.9,44,0.00,CLR,,0.00,WeatherDisplay:10.37,2013-02-19 00:41:00,
2013-02-18 19:46:00,22.9,4.2,29.94,SSE,165,8.1,8.1,44,0.00,CLR,,0.00,WeatherDisplay:10.37,2013-02-19 00:46:00,
2013-02-18 19:51:00,22.8,4.6,29.94,South,188,10.4,10.4,45,0.00,CLR,,0.00,WeatherDisplay:10.37,2013-02-19 00:51:00,
2013-02-18 19:56:00,22.6,4.4,29.95,SE,144,10.4,10.4,45,0.00,CLR,,0.00,WeatherDisplay:10.37,2013-02-19 00:56:00,
2013-02-18 20:01:00,22.6,4.4,29.95,NNE,20,4.6,4.6,45,0.00,CLR,,0.00,WeatherDisplay:10.37,2013-02-19 01:01:00,
2013-02-18 20:06:00,22.5,3.8,29.95,NE,44,6.9,6.9,44,0.00,CLR,,0.00,WeatherDisplay:10.37,2013-02-19 01:06:00,
2013-02-18 20:11:00,22.3,4.6,29.95,NE,35,6.9,6.9,46,0.00,CLR,,0.00,WeatherDisplay:10.37,2013-02-19 01:11:00,
2013-02-18 20:16:00,22.2,4.1,29.95,NE,52,11.5,11.5,45,0.00,CLR,,0.00,WeatherDisplay:10.37,2013-02-19 01:16:00,
2013-02-18 20:21:00,22.0,3.4,29.95,East,93,4.6,4.6,44,0.00,CLR,,0.00,WeatherDisplay:10.37,2013-02-19 01:21:00,
2013-02-18 20:26:00,22.2,2.6,29.96,ESE,121,8.1,8.1,42,0.00,CLR,,0.00,WeatherDisplay:10.37,2013-02-19 01:26:00,
2013-02-18 20:31:00,22.2,2.6,29.96,East,95,15.0,15.0,42,0.00,CLR,,0.00,WeatherDisplay:10.37,2013-02-19 01:31:00,
2013-02-18 20:36:00,22.0,2.4,29.97,SW,222,8.1,8.1,42,0.00,CLR,,0.00,WeatherDisplay:10.37,2013-02-19 01:36:00,
2013-02-18 20:41:00,22.0,2.4,29.97,NE,37,8.4,8.4,42,0.00,CLR,,0.00,WeatherDisplay:10.37,2013-02-19 01:41:00,
2013-02-18 20:46:00,22.0,2.9,29.97,NE,47,8.1,8.1,43,0.00,CLR,,0.00,WeatherDisplay:10.37,2013-02-19 01:46:00,
2013-02-18 20:51:00,21.9,2.3,29.97,ESE,116,5.6,5.6,42,0.00,CLR,,0.00,WeatherDisplay:10.37,2013-02-19 01:51:00,
2013-02-18 20:57:00,21.7,2.1,29.97,NW,316,10.4,10.4,42,0.00,CLR,,0.00,WeatherDisplay:10.37,2013-02-19 01:57:00,
2013-02-18 21:02:00,21.7,2.1,29.97,East,86,15.0,15.0,42,0.00,CLR,,0.00,WeatherDisplay:10.37,2013-02-19 02:02:00,
2013-02-18 21:07:00,21.6,2.5,29.97,ENE,69,10.4,10.4,43,0.00,CLR,,0.00,WeatherDisplay:10.37,2013-02-19 02:07:00,
2013-02-18 21:12:00,21.4,2.3,29.97,SSW,205,11.5,11.5,43,0.00,CLR,,0.00,WeatherDisplay:10.37,2013-02-19 02:12:00,
2013-02-18 21:17:00,21.4,2.3,29.97,West,268,11.5,11.5,43,0.00,CLR,,0.00,WeatherDisplay:10.37,2013-02-19 02:17:00,
2013-02-18 21:22:00,21.4,2.3,29.97,ESE,103,10.4,10.4,43,0.00,CLR,,0.00,WeatherDisplay:10.37,2013-02-19 02:22:00,
2013-02-18 21:27:00,21.3,1.7,29.97,ESE,119,10.4,10.4,42,0.00,CLR,,0.00,WeatherDisplay:10.37,2013-02-19 02:27:00,
2013-02-18 21:32:00,21.1,2.6,29.98,East,100,5.8,5.8,44,0.00,CLR,,0.00,WeatherDisplay:10.37,2013-02-19 02:32:00,
2013-02-18 21:37:00,20.9,2.4,29.98,ESE,114,4.6,4.6,44,0.00,CLR,,0.00,WeatherDisplay:10.37,2013-02-19 02:37:00,
2013-02-18 21:42:00,20.8,2.3,29.98,SE,130,8.1,8.1,44,0.00,CLR,,0.00,WeatherDisplay:10.37,2013-02-19 02:42:00,
2013-02-18 21:47:00,20.8,1.8,29.99,East,96,4.6,4.6,43,0.00,CLR,,0.00,WeatherDisplay:10.37,2013-02-19 02:47:00,
2013-02-18 21:52:00,20.8,2.3,29.99,SSE,168,8.4,8.4,44,0.00,CLR,,0.00,WeatherDisplay:10.37,2013-02-19 02:52:00,
2013-02-18 21:57:00,20.6,2.1,29.99,SW,227,13.8,13.8,44,0.00,CLR,,0.00,WeatherDisplay:10.37,2013-02-19 02:57:00,
2013-02-18 22:02:00,20.6,1.6,29.99,NE,48,4.6,4.6,43,0.00,CLR,,0.00,WeatherDisplay:10.37,2013-02-19 03:02:00,
2013-02-18 22:08:00,20.5,2.0,29.99,SSE,164,5.8,5.8,44,0.00,CLR,,0.00,WeatherDisplay:10.37,2013-02-19 03:08:00,
2013-02-18 22:13:00,20.3,1.3,30.00,ESE,113,6.9,6.9,43,0.00,CLR,,0.00,WeatherDisplay:10.37,2013-02-19 03:13:00,
2013-02-18 22:18:00,20.3,1.8,29.99,South,186,6.9,6.9,44,0.00,CLR,,0.00,WeatherDisplay:10.37,2013-02-19 03:18:00,
2013-02-18 22:23:00,20.3,1.8,29.99,SSE,164,6.9,6.9,44,0.00,CLR,,0.00,WeatherDisplay:10.37,2013-02-19 03:23:00,
2013-02-18 22:29:00,20.2,1.7,29.99,SE,128,10.4,10.4,44,0.00,CLR,,0.00,WeatherDisplay:10.37,2013-02-19 03:29:00,
2013-02-18 22:34:00,20.2,2.2,29.99,SSE,154,8.1,8.1,45,0.00,CLR,,0.00,WeatherDisplay:10.37,2013-02-19 03:34:00,
2013-02-18 22:39:00,20.2,1.7,29.99,SSE,158,13.8,13.8,44,0.00,CLR,,0.00,WeatherDisplay:10.37,2013-02-19 03:39:00,
2013-02-18 22:44:00,20.2,1.7,29.99,West,267,8.1,8.1,44,0.00,CLR,,0.00,WeatherDisplay:10.37,2013-02-19 03:44:00,
2013-02-18 22:49:00,20.2,1.2,30.00,East,92,6.9,6.9,43,0.00,CLR,,0.00,WeatherDisplay:10.37,2013-02-19 03:49:00,
2013-02-18 22:54:00,20.2,1.7,30.00,SSW,199,6.9,6.9,44,0.00,CLR,,0.00,WeatherDisplay:10.37,2013-02-19 03:54:00,
2013-02-18 22:59:00,20.0,2.0,30.01,ESE,116,4.6,4.6,45,0.00,CLR,,0.00,WeatherDisplay:10.37,2013-02-19 03:59:00,
2013-02-18 23:04:00,19.8,1.8,30.01,WSW,247,2.3,2.3,45,0.00,CLR,,0.00,WeatherDisplay:10.37,2013-02-19 04:04:00,
2013-02-18 23:09:00,19.7,1.8,30.01,SE,137,4.6,4.6,45,0.00,CLR,,0.00,WeatherDisplay:10.37,2013-02-19 04:09:00,
2013-02-18 23:14:00,19.7,1.3,30.01,ESE,106,8.1,8.1,44,0.00,CLR,,0.00,WeatherDisplay:10.37,2013-02-19 04:14:00,
2013-02-18 23:19:00,19.8,1.4,30.01,South,191,4.6,4.6,44,0.00,CLR,,0.00,WeatherDisplay:10.37,2013-02-19 04:19:00,
2013-02-18 23:24:00,19.8,1.4,30.01,SSW,200,8.1,8.1,44,0.00,CLR,,0.00,WeatherDisplay:10.37,2013-02-19 04:24:00,
2013-02-18 23:29:00,19.8,1.4,30.02,South,182,8.1,8.1,44,0.00,CLR,,0.00,WeatherDisplay:10.37,2013-02-19 04:29:00,
2013-02-18 23:34:00,19.8,1.8,30.02,East,96,4.6,4.6,45,0.00,CLR,,0.00,WeatherDisplay:10.37,2013-02-19 04:34:00,
2013-02-18 23:39:00,19.7,2.2,30.03,South,169,1.1,1.1,46,0.00,CLR,,0.00,WeatherDisplay:10.37,2013-02-19 04:39:00,
2013-02-18 23:44:00,19.5,2.0,30.03,South,189,4.6,4.6,46,0.00,CLR,,0.00,WeatherDisplay:10.37,2013-02-19 04:44:00,
2013-02-18 23:49:00,19.4,2.4,30.03,South,186,1.1,1.1,47,0.00,CLR,,0.00,WeatherDisplay:10.37,2013-02-19 04:49:00,
2013-02-18 23:54:00,19.2,2.2,30.03,South,185,2.3,2.3,47,0.00,CLR,,0.00,WeatherDisplay:10.37,2013-02-19 04:54:00,
2013-02-18 23:59:00,19.0,2.5,30.03,SSE,160,4.6,4.6,48,0.00,CLR,,0.00,WeatherDisplay:10.37,2013-02-19 04:59:00,